Year,Month,Day,Hour,Minute,Value (Times are PST for windspeed in km/hr)
2016,10,05,00,00,21.40
2016,10,05,00,01,21.40
2016,10,05,00,02,22.00
2016,10,05,00,03,22.10
2016,10,05,00,04,23.70
2016,10,05,00,05,24.20
2016,10,05,00,06,24.30
2016,10,05,00,07,24.50
2016,10,05,00,08,24.60
2016,10,05,00,09,24.50
2016,10,05,00,10,23.10
2016,10,05,00,11,22.80
2016,10,05,00,12,21.80
2016,10,05,00,13,22.50
2016,10,05,00,14,22.40
2016,10,05,00,15,22.30
2016,10,05,00,16,19.40
2016,10,05,00,17,19.80
2016,10,05,00,18,18.30
2016,10,05,00,19,18.40
2016,10,05,00,20,17.90
2016,10,05,00,21,17.60
2016,10,05,00,22,18.10
2016,10,05,00,23,17.60
2016,10,05,00,24,18.10
2016,10,05,00,25,17.60
2016,10,05,00,26,17.50
2016,10,05,00,27,16.90
2016,10,05,00,28,16.40
2016,10,05,00,29,15.20
2016,10,05,00,30,15.60
2016,10,05,00,31,14.60
2016,10,05,00,32,13.90
2016,10,05,00,33,14.00
2016,10,05,00,34,14.30
2016,10,05,00,35,15.20
2016,10,05,00,36,15.60
2016,10,05,00,37,15.30
2016,10,05,00,38,14.90
2016,10,05,00,39,14.60
2016,10,05,00,40,13.10
2016,10,05,00,41,11.80
2016,10,05,00,42,11.60
2016,10,05,00,43,11.30
2016,10,05,00,44,11.90
2016,10,05,00,45,11.50
2016,10,05,00,46,10.20
2016,10,05,00,47,10.00
2016,10,05,00,48,10.50
2016,10,05,00,49,10.00
2016,10,05,00,50,9.50
2016,10,05,00,51,8.60
2016,10,05,00,52,6.90
2016,10,05,00,53,7.30
2016,10,05,00,54,7.20
2016,10,05,00,55,6.70
2016,10,05,00,56,7.20
2016,10,05,00,57,8.10
2016,10,05,00,58,8.20
2016,10,05,00,59,7.70
2016,10,05,01,00,8.10
2016,10,05,01,01,8.50
2016,10,05,01,02,8.10
2016,10,05,01,03,8.10
2016,10,05,01,04,8.10
2016,10,05,01,05,8.80
2016,10,05,01,06,8.10
2016,10,05,01,07,9.70
2016,10,05,01,08,10.60
2016,10,05,01,09,10.40
2016,10,05,01,10,10.90
2016,10,05,01,11,11.60
2016,10,05,01,12,12.40
2016,10,05,01,13,13.00
2016,10,05,01,14,13.60
2016,10,05,01,15,13.60
2016,10,05,01,16,13.00
2016,10,05,01,17,12.20
2016,10,05,01,18,10.90
2016,10,05,01,19,9.80
2016,10,05,01,20,8.20
2016,10,05,01,21,7.80
2016,10,05,01,22,7.10
2016,10,05,01,23,7.30
2016,10,05,01,24,8.10
2016,10,05,01,25,7.90
2016,10,05,01,26,8.90
2016,10,05,01,27,11.00
2016,10,05,01,28,11.60
2016,10,05,01,29,11.80
2016,10,05,01,30,11.70
2016,10,05,01,31,10.60
2016,10,05,01,32,10.90
2016,10,05,01,33,11.20
2016,10,05,01,34,12.20
2016,10,05,01,35,12.50
2016,10,05,01,36,12.40
2016,10,05,01,37,12.10
2016,10,05,01,38,11.80
2016,10,05,01,39,9.20
2016,10,05,01,40,9.70
2016,10,05,01,41,10.80
2016,10,05,01,42,11.30
2016,10,05,01,43,10.50
2016,10,05,01,44,9.20
2016,10,05,01,45,8.70
2016,10,05,01,46,9.20
2016,10,05,01,47,9.80
2016,10,05,01,48,9.60
2016,10,05,01,49,9.50
2016,10,05,01,50,9.60
2016,10,05,01,51,9.60
2016,10,05,01,52,10.00
2016,10,05,01,53,10.40
2016,10,05,01,54,9.90
2016,10,05,01,55,9.40
2016,10,05,01,56,8.90
2016,10,05,01,57,8.10
2016,10,05,01,58,8.20
2016,10,05,01,59,7.80
2016,10,05,02,00,5.20
2016,10,05,02,01,4.40
2016,10,05,02,02,4.80
2016,10,05,02,03,4.90
2016,10,05,02,04,4.10
2016,10,05,02,05,4.70
2016,10,05,02,06,4.30
2016,10,05,02,07,4.60
2016,10,05,02,08,5.20
2016,10,05,02,09,5.40
2016,10,05,02,10,5.20
2016,10,05,02,11,5.80
2016,10,05,02,12,5.40
2016,10,05,02,13,4.90
2016,10,05,02,14,4.70
2016,10,05,02,15,4.40
2016,10,05,02,16,3.70
2016,10,05,02,17,3.80
2016,10,05,02,18,5.30
2016,10,05,02,19,5.90
2016,10,05,02,20,7.30
2016,10,05,02,21,7.90
2016,10,05,02,22,7.80
2016,10,05,02,23,6.70
2016,10,05,02,24,5.10
2016,10,05,02,25,4.80
2016,10,05,02,26,4.00
2016,10,05,02,27,3.90
2016,10,05,02,28,3.40
2016,10,05,02,29,4.00
2016,10,05,02,30,5.30
2016,10,05,02,31,5.60
2016,10,05,02,32,5.60
2016,10,05,02,33,6.70
2016,10,05,02,34,6.30
2016,10,05,02,35,5.90
2016,10,05,02,36,6.20
2016,10,05,02,37,5.50
2016,10,05,02,38,6.10
2016,10,05,02,39,6.80
2016,10,05,02,40,6.60
2016,10,05,02,41,6.80
2016,10,05,02,42,8.20
2016,10,05,02,43,10.90
2016,10,05,02,44,10.00
2016,10,05,02,45,8.10
2016,10,05,02,46,6.50
2016,10,05,02,47,5.60
2016,10,05,02,48,3.60
2016,10,05,02,49,3.30
2016,10,05,02,50,4.70
2016,10,05,02,51,2.90
2016,10,05,02,52,1.50
2016,10,05,02,53,2.80
2016,10,05,02,54,6.30
2016,10,05,02,55,7.50
2016,10,05,02,56,7.80
2016,10,05,02,57,7.10
2016,10,05,02,58,10.00
2016,10,05,02,59,10.60
2016,10,05,03,00,11.40
2016,10,05,03,01,12.40
2016,10,05,03,02,11.60
2016,10,05,03,03,11.10
2016,10,05,03,04,10.70
2016,10,05,03,05,10.50
2016,10,05,03,06,9.90
2016,10,05,03,07,9.20
2016,10,05,03,08,8.90
2016,10,05,03,09,8.60
2016,10,05,03,10,8.70
2016,10,05,03,11,8.90
2016,10,05,03,12,7.10
2016,10,05,03,13,7.80
2016,10,05,03,14,7.70
2016,10,05,03,15,6.80
2016,10,05,03,16,7.80
2016,10,05,03,17,8.90
2016,10,05,03,18,11.00
2016,10,05,03,19,12.00
2016,10,05,03,20,13.40
2016,10,05,03,21,14.30
2016,10,05,03,22,14.20
2016,10,05,03,23,13.60
2016,10,05,03,24,13.70
2016,10,05,03,25,12.50
2016,10,05,03,26,12.10
2016,10,05,03,27,11.70
2016,10,05,03,28,13.00
2016,10,05,03,29,13.30
2016,10,05,03,30,12.70
2016,10,05,03,31,12.50
2016,10,05,03,32,11.30
2016,10,05,03,33,9.30
2016,10,05,03,34,9.10
2016,10,05,03,35,8.80
2016,10,05,03,36,8.10
2016,10,05,03,37,6.90
2016,10,05,03,38,6.40
2016,10,05,03,39,6.80
2016,10,05,03,40,6.60
2016,10,05,03,41,6.00
2016,10,05,03,42,6.40
2016,10,05,03,43,6.40
2016,10,05,03,44,6.40
2016,10,05,03,45,6.50
2016,10,05,03,46,6.40
2016,10,05,03,47,6.40
2016,10,05,03,48,6.00
2016,10,05,03,49,6.10
2016,10,05,03,50,6.30
2016,10,05,03,51,5.70
2016,10,05,03,52,6.00
2016,10,05,03,53,5.90
2016,10,05,03,54,6.20
2016,10,05,03,55,6.30
2016,10,05,03,56,6.00
2016,10,05,03,57,6.30
2016,10,05,03,58,5.30
2016,10,05,03,59,5.10
2016,10,05,04,00,4.60
2016,10,05,04,01,4.50
2016,10,05,04,02,4.50
2016,10,05,04,03,4.50
2016,10,05,04,04,4.30
2016,10,05,04,05,4.40
2016,10,05,04,06,4.30
2016,10,05,04,07,4.40
2016,10,05,04,08,3.60
2016,10,05,04,09,3.90
2016,10,05,04,10,3.40
2016,10,05,04,11,1.90
2016,10,05,04,12,2.40
2016,10,05,04,13,2.20
2016,10,05,04,14,2.30
2016,10,05,04,15,3.20
2016,10,05,04,16,2.30
2016,10,05,04,17,1.10
2016,10,05,04,18,3.70
2016,10,05,04,19,4.80
2016,10,05,04,20,4.70
2016,10,05,04,21,4.30
2016,10,05,04,22,4.30
2016,10,05,04,23,4.40
2016,10,05,04,24,4.50
2016,10,05,04,25,5.00
2016,10,05,04,26,5.60
2016,10,05,04,27,5.70
2016,10,05,04,28,4.50
2016,10,05,04,29,4.70
2016,10,05,04,30,5.20
2016,10,05,04,31,6.10
2016,10,05,04,32,6.60
2016,10,05,04,33,6.10
2016,10,05,04,34,5.90
2016,10,05,04,35,4.80
2016,10,05,04,36,4.40
2016,10,05,04,37,5.20
2016,10,05,04,38,6.10
2016,10,05,04,39,5.70
2016,10,05,04,40,5.30
2016,10,05,04,41,6.00
2016,10,05,04,42,5.60
2016,10,05,04,43,6.20
2016,10,05,04,44,6.20
2016,10,05,04,45,4.70
2016,10,05,04,46,5.00
2016,10,05,04,47,5.10
2016,10,05,04,48,6.80
2016,10,05,04,49,8.10
2016,10,05,04,50,8.20
2016,10,05,04,51,8.20
2016,10,05,04,52,7.90
2016,10,05,04,53,6.90
2016,10,05,04,54,5.60
2016,10,05,04,55,6.10
2016,10,05,04,56,6.10
2016,10,05,04,57,6.10
2016,10,05,04,58,5.90
2016,10,05,04,59,5.10
2016,10,05,05,00,6.20
2016,10,05,05,01,7.00
2016,10,05,05,02,6.90
2016,10,05,05,03,7.70
2016,10,05,05,04,8.90
2016,10,05,05,05,8.20
2016,10,05,05,06,8.60
2016,10,05,05,07,9.30
2016,10,05,05,08,9.40
2016,10,05,05,09,9.50
2016,10,05,05,10,10.50
2016,10,05,05,11,9.80
2016,10,05,05,12,10.40
2016,10,05,05,13,11.10
2016,10,05,05,14,11.00
2016,10,05,05,15,11.40
2016,10,05,05,16,12.40
2016,10,05,05,17,11.90
2016,10,05,05,18,11.30
2016,10,05,05,19,11.70
2016,10,05,05,20,12.00
2016,10,05,05,21,11.40
2016,10,05,05,22,11.30
2016,10,05,05,23,12.30
2016,10,05,05,24,12.10
2016,10,05,05,25,12.10
2016,10,05,05,26,12.30
2016,10,05,05,27,12.10
2016,10,05,05,28,13.20
2016,10,05,05,29,13.30
2016,10,05,05,30,13.20
2016,10,05,05,31,13.80
2016,10,05,05,32,14.20
2016,10,05,05,33,15.60
2016,10,05,05,34,13.10
2016,10,05,05,35,13.90
2016,10,05,05,36,13.60
2016,10,05,05,37,12.20
2016,10,05,05,38,11.20
2016,10,05,05,39,11.30
2016,10,05,05,40,11.60
2016,10,05,05,41,11.20
2016,10,05,05,42,11.00
2016,10,05,05,43,10.90
2016,10,05,05,44,11.70
2016,10,05,05,45,10.70
2016,10,05,05,46,11.50
2016,10,05,05,47,12.20
2016,10,05,05,48,14.10
2016,10,05,05,49,14.10
2016,10,05,05,50,14.40
2016,10,05,05,51,14.90
2016,10,05,05,52,14.90
2016,10,05,05,53,15.20
2016,10,05,05,54,16.10
2016,10,05,05,55,15.90
2016,10,05,05,56,16.50
2016,10,05,05,57,18.20
2016,10,05,05,58,15.80
2016,10,05,05,59,16.80
2016,10,05,06,00,18.00
2016,10,05,06,01,19.50
2016,10,05,06,02,22.10
2016,10,05,06,03,23.30
2016,10,05,06,04,25.40
2016,10,05,06,05,26.40
2016,10,05,06,06,27.60
2016,10,05,06,07,27.90
2016,10,05,06,08,26.80
2016,10,05,06,09,25.90
2016,10,05,06,10,24.50
2016,10,05,06,11,24.00
2016,10,05,06,12,26.40
2016,10,05,06,13,25.70
2016,10,05,06,14,27.40
2016,10,05,06,15,29.50
2016,10,05,06,16,30.60
2016,10,05,06,17,30.80
2016,10,05,06,18,32.10
2016,10,05,06,19,30.30
2016,10,05,06,20,29.10
2016,10,05,06,21,27.90
2016,10,05,06,22,31.30
2016,10,05,06,23,33.40
2016,10,05,06,24,34.40
2016,10,05,06,25,35.00
2016,10,05,06,26,35.00
2016,10,05,06,27,36.30
2016,10,05,06,28,40.70
2016,10,05,06,29,41.60
2016,10,05,06,30,42.90
2016,10,05,06,31,44.70
2016,10,05,06,32,44.50
2016,10,05,06,33,42.80
2016,10,05,06,34,41.40
2016,10,05,06,35,40.60
2016,10,05,06,36,39.40
2016,10,05,06,37,37.80
2016,10,05,06,38,37.80
2016,10,05,06,39,36.10
2016,10,05,06,40,36.00
2016,10,05,06,41,32.80
2016,10,05,06,42,32.00
2016,10,05,06,43,29.70
2016,10,05,06,44,31.30
2016,10,05,06,45,28.00
2016,10,05,06,46,26.90
2016,10,05,06,47,25.70
2016,10,05,06,48,28.50
2016,10,05,06,49,29.50
2016,10,05,06,50,28.50
2016,10,05,06,51,28.10
2016,10,05,06,52,27.40
2016,10,05,06,53,26.00
2016,10,05,06,54,25.50
2016,10,05,06,55,23.20
2016,10,05,06,56,24.10
2016,10,05,06,57,26.10
2016,10,05,06,58,26.40
2016,10,05,06,59,24.70
2016,10,05,07,00,23.00
2016,10,05,07,01,25.60
2016,10,05,07,02,29.50
2016,10,05,07,03,32.40
2016,10,05,07,04,31.30
2016,10,05,07,05,33.60
2016,10,05,07,06,36.20
2016,10,05,07,07,35.20
2016,10,05,07,08,34.40
2016,10,05,07,09,34.50
2016,10,05,07,10,34.40
2016,10,05,07,11,30.50
2016,10,05,07,12,27.00
2016,10,05,07,13,33.10
2016,10,05,07,14,35.70
2016,10,05,07,15,35.00
2016,10,05,07,16,32.90
2016,10,05,07,17,32.00
2016,10,05,07,18,35.50
2016,10,05,07,19,38.60
2016,10,05,07,20,40.70
2016,10,05,07,21,41.40
2016,10,05,07,22,41.70
2016,10,05,07,23,43.10
2016,10,05,07,24,41.40
2016,10,05,07,25,40.40
2016,10,05,07,26,40.90
2016,10,05,07,27,39.90
2016,10,05,07,28,39.50
2016,10,05,07,29,35.20
2016,10,05,07,30,32.10
2016,10,05,07,31,32.90
2016,10,05,07,32,35.10
2016,10,05,07,33,30.20
2016,10,05,07,34,27.10
2016,10,05,07,35,27.80
2016,10,05,07,36,27.50
2016,10,05,07,37,27.70
2016,10,05,07,38,26.40
2016,10,05,07,39,24.00
2016,10,05,07,40,22.60
2016,10,05,07,41,24.50
2016,10,05,07,42,25.60
2016,10,05,07,43,27.50
2016,10,05,07,44,24.60
2016,10,05,07,45,21.70
2016,10,05,07,46,19.90
2016,10,05,07,47,18.70
2016,10,05,07,48,19.60
2016,10,05,07,49,23.10
2016,10,05,07,50,21.10
2016,10,05,07,51,21.00
2016,10,05,07,52,21.10
2016,10,05,07,53,20.70
2016,10,05,07,54,19.40
2016,10,05,07,55,19.50
2016,10,05,07,56,20.20
2016,10,05,07,57,21.40
2016,10,05,07,58,22.10
2016,10,05,07,59,22.20
2016,10,05,08,00,21.20
2016,10,05,08,01,21.60
2016,10,05,08,02,21.50
2016,10,05,08,03,22.40
2016,10,05,08,04,21.70
2016,10,05,08,05,21.50
2016,10,05,08,06,20.80
2016,10,05,08,07,22.20
2016,10,05,08,08,21.50
2016,10,05,08,09,22.30
2016,10,05,08,10,22.30
2016,10,05,08,11,22.40
2016,10,05,08,12,22.30
2016,10,05,08,13,22.50
2016,10,05,08,14,23.20
2016,10,05,08,15,23.30
2016,10,05,08,16,23.30
2016,10,05,08,17,22.80
2016,10,05,08,18,22.70
2016,10,05,08,19,22.40
2016,10,05,08,20,23.10
2016,10,05,08,21,22.50
2016,10,05,08,22,23.20
2016,10,05,08,23,23.50
2016,10,05,08,24,22.50
2016,10,05,08,25,21.90
2016,10,05,08,26,21.50
2016,10,05,08,27,19.70
2016,10,05,08,28,19.40
2016,10,05,08,29,18.30
2016,10,05,08,30,18.40
2016,10,05,08,31,19.80
2016,10,05,08,32,19.10
2016,10,05,08,33,18.80
2016,10,05,08,34,18.00
2016,10,05,08,35,13.70
2016,10,05,08,36,13.90
2016,10,05,08,37,14.30
2016,10,05,08,38,16.20
2016,10,05,08,39,15.20
2016,10,05,08,40,15.60
2016,10,05,08,41,15.60
2016,10,05,08,42,17.10
2016,10,05,08,43,17.30
2016,10,05,08,44,16.20
2016,10,05,08,45,16.70
2016,10,05,08,46,16.50
2016,10,05,08,47,16.90
2016,10,05,08,48,16.70
2016,10,05,08,49,16.50
2016,10,05,08,50,18.30
2016,10,05,08,51,18.20
2016,10,05,08,52,17.80
2016,10,05,08,53,18.10
2016,10,05,08,54,16.50
2016,10,05,08,55,16.20
2016,10,05,08,56,17.10
2016,10,05,08,57,18.50
2016,10,05,08,58,16.90
2016,10,05,08,59,16.10
2016,10,05,09,00,16.30
2016,10,05,09,01,16.30
2016,10,05,09,02,16.60
2016,10,05,09,03,16.20
2016,10,05,09,04,16.50
2016,10,05,09,05,16.60
2016,10,05,09,06,17.30
2016,10,05,09,07,17.10
2016,10,05,09,08,16.60
2016,10,05,09,09,16.20
2016,10,05,09,10,16.40
2016,10,05,09,11,15.80
2016,10,05,09,12,16.40
2016,10,05,09,13,16.50
2016,10,05,09,14,15.90
2016,10,05,09,15,15.40
2016,10,05,09,16,14.80
2016,10,05,09,17,15.40
2016,10,05,09,18,15.40
2016,10,05,09,19,14.50
2016,10,05,09,20,14.70
2016,10,05,09,21,13.20
2016,10,05,09,22,11.00
2016,10,05,09,23,13.30
2016,10,05,09,24,10.20
2016,10,05,09,25,12.60
2016,10,05,09,26,13.00
2016,10,05,09,27,12.30
2016,10,05,09,28,11.30
2016,10,05,09,29,12.20
2016,10,05,09,30,11.90
2016,10,05,09,31,11.80
2016,10,05,09,32,11.00
2016,10,05,09,33,12.00
2016,10,05,09,34,11.20
2016,10,05,09,35,13.00
2016,10,05,09,36,12.90
2016,10,05,09,37,12.80
2016,10,05,09,38,13.60
2016,10,05,09,39,12.20
2016,10,05,09,40,14.30
2016,10,05,09,41,13.00
2016,10,05,09,42,14.30
2016,10,05,09,43,12.30
2016,10,05,09,44,13.20
2016,10,05,09,45,12.90
2016,10,05,09,46,12.40
2016,10,05,09,47,12.20
2016,10,05,09,48,11.70
2016,10,05,09,49,12.20
2016,10,05,09,50,12.20
2016,10,05,09,51,10.80
2016,10,05,09,52,11.20
2016,10,05,09,53,13.10
2016,10,05,09,54,13.80
2016,10,05,09,55,14.40
2016,10,05,09,56,14.90
2016,10,05,09,57,13.90
2016,10,05,09,58,15.40
2016,10,05,09,59,14.20
2016,10,05,10,00,13.00
2016,10,05,10,01,14.10
2016,10,05,10,02,13.80
2016,10,05,10,03,14.50
2016,10,05,10,04,14.20
2016,10,05,10,05,13.70
2016,10,05,10,06,16.60
2016,10,05,10,07,19.10
2016,10,05,10,08,20.80
2016,10,05,10,09,18.80
2016,10,05,10,10,19.20
2016,10,05,10,11,18.50
2016,10,05,10,12,18.50
2016,10,05,10,13,17.90
2016,10,05,10,14,18.70
2016,10,05,10,15,19.20
2016,10,05,10,16,18.30
2016,10,05,10,17,18.30
2016,10,05,10,18,17.30
2016,10,05,10,19,15.60
2016,10,05,10,20,15.30
2016,10,05,10,21,16.30
2016,10,05,10,22,17.20
2016,10,05,10,23,17.90
2016,10,05,10,24,18.90
2016,10,05,10,25,19.90
2016,10,05,10,26,20.20
2016,10,05,10,27,18.30
2016,10,05,10,28,19.80
2016,10,05,10,29,20.70
2016,10,05,10,30,20.80
2016,10,05,10,31,21.20
2016,10,05,10,32,20.70
2016,10,05,10,33,20.90
2016,10,05,10,34,22.40
2016,10,05,10,35,21.60
2016,10,05,10,36,21.80
2016,10,05,10,37,22.00
2016,10,05,10,38,21.80
2016,10,05,10,39,21.90
2016,10,05,10,40,22.70
2016,10,05,10,41,21.80
2016,10,05,10,42,21.50
2016,10,05,10,43,20.00
2016,10,05,10,44,21.50
2016,10,05,10,45,21.50
2016,10,05,10,46,22.90
2016,10,05,10,47,22.20
2016,10,05,10,48,21.60
2016,10,05,10,49,22.60
2016,10,05,10,50,21.40
2016,10,05,10,51,22.50
2016,10,05,10,52,21.60
2016,10,05,10,53,20.20
2016,10,05,10,54,22.10
2016,10,05,10,55,21.90
2016,10,05,10,56,22.40
2016,10,05,10,57,20.60
2016,10,05,10,58,20.80
2016,10,05,10,59,21.60
2016,10,05,11,00,20.80
2016,10,05,11,01,19.50
2016,10,05,11,02,20.70
2016,10,05,11,03,21.20
2016,10,05,11,04,21.60
2016,10,05,11,05,21.60
2016,10,05,11,06,20.50
2016,10,05,11,07,21.40
2016,10,05,11,08,21.70
2016,10,05,11,09,20.00
2016,10,05,11,10,19.40
2016,10,05,11,11,19.80
2016,10,05,11,12,18.80
2016,10,05,11,13,21.60
2016,10,05,11,14,20.90
2016,10,05,11,15,21.30
2016,10,05,11,16,22.30
2016,10,05,11,17,22.50
2016,10,05,11,18,21.30
2016,10,05,11,19,21.30
2016,10,05,11,20,21.10
2016,10,05,11,21,21.60
2016,10,05,11,22,19.90
2016,10,05,11,23,20.10
2016,10,05,11,24,19.80
2016,10,05,11,25,20.30
2016,10,05,11,26,20.60
2016,10,05,11,27,19.70
2016,10,05,11,28,20.20
2016,10,05,11,29,21.40
2016,10,05,11,30,21.00
2016,10,05,11,31,21.50
2016,10,05,11,32,21.10
2016,10,05,11,33,20.50
2016,10,05,11,34,20.50
2016,10,05,11,35,19.10
2016,10,05,11,36,17.90
2016,10,05,11,37,20.60
2016,10,05,11,38,19.50
2016,10,05,11,39,21.50
2016,10,05,11,40,21.40
2016,10,05,11,41,22.90
2016,10,05,11,42,19.50
2016,10,05,11,43,19.10
2016,10,05,11,44,23.50
2016,10,05,11,45,22.10
2016,10,05,11,46,20.50
2016,10,05,11,47,21.60
2016,10,05,11,48,20.90
2016,10,05,11,49,21.80
2016,10,05,11,50,22.20
2016,10,05,11,51,21.80
2016,10,05,11,52,20.30
2016,10,05,11,53,18.80
2016,10,05,11,54,19.90
2016,10,05,11,55,20.80
2016,10,05,11,56,21.50
2016,10,05,11,57,22.10
2016,10,05,11,58,22.30
2016,10,05,11,59,22.20
2016,10,05,12,00,21.10
2016,10,05,12,01,22.40
2016,10,05,12,02,23.10
2016,10,05,12,03,22.30
2016,10,05,12,04,24.40
2016,10,05,12,05,24.10
2016,10,05,12,06,22.80
2016,10,05,12,07,23.10
2016,10,05,12,08,22.90
2016,10,05,12,09,24.00
2016,10,05,12,10,24.10
2016,10,05,12,11,24.50
2016,10,05,12,12,24.10
2016,10,05,12,13,24.20
2016,10,05,12,14,25.20
2016,10,05,12,15,24.70
2016,10,05,12,16,24.00
2016,10,05,12,17,24.60
2016,10,05,12,18,25.60
2016,10,05,12,19,25.10
2016,10,05,12,20,24.70
2016,10,05,12,21,24.70
2016,10,05,12,22,23.50
2016,10,05,12,23,24.30
2016,10,05,12,24,22.20
2016,10,05,12,25,24.60
2016,10,05,12,26,23.50
2016,10,05,12,27,22.10
2016,10,05,12,28,23.20
2016,10,05,12,29,22.30
2016,10,05,12,30,23.40
2016,10,05,12,31,22.00
2016,10,05,12,32,23.00
2016,10,05,12,33,22.60
2016,10,05,12,34,22.30
2016,10,05,12,35,21.10
2016,10,05,12,36,23.10
2016,10,05,12,37,22.50
2016,10,05,12,38,23.20
2016,10,05,12,39,22.90
2016,10,05,12,40,22.50
2016,10,05,12,41,22.10
2016,10,05,12,42,20.30
2016,10,05,12,43,21.10
2016,10,05,12,44,20.50
2016,10,05,12,45,20.30
2016,10,05,12,46,19.50
2016,10,05,12,47,20.20
2016,10,05,12,48,20.70
2016,10,05,12,49,20.40
2016,10,05,12,50,22.20
2016,10,05,12,51,21.70
2016,10,05,12,52,21.70
2016,10,05,12,53,20.80
2016,10,05,12,54,20.90
2016,10,05,12,55,22.80
2016,10,05,12,56,23.30
2016,10,05,12,57,24.20
2016,10,05,12,58,25.60
2016,10,05,12,59,24.80
2016,10,05,13,00,24.20
2016,10,05,13,01,24.20
2016,10,05,13,02,23.80
2016,10,05,13,03,23.50
2016,10,05,13,04,22.50
2016,10,05,13,05,22.50
2016,10,05,13,06,22.50
2016,10,05,13,07,22.20
2016,10,05,13,08,22.90
2016,10,05,13,09,22.50
2016,10,05,13,10,22.50
2016,10,05,13,11,20.80
2016,10,05,13,12,21.50
2016,10,05,13,13,21.60
2016,10,05,13,14,21.40
2016,10,05,13,15,20.50
2016,10,05,13,16,19.80
2016,10,05,13,17,20.00
2016,10,05,13,18,19.40
2016,10,05,13,19,18.60
2016,10,05,13,20,19.20
2016,10,05,13,21,19.80
2016,10,05,13,22,21.60
2016,10,05,13,23,21.50
2016,10,05,13,24,19.50
2016,10,05,13,25,20.10
2016,10,05,13,26,21.40
2016,10,05,13,27,21.60
2016,10,05,13,28,22.20
2016,10,05,13,29,21.50
2016,10,05,13,30,21.70
2016,10,05,13,31,21.40
2016,10,05,13,32,21.50
2016,10,05,13,33,21.90
2016,10,05,13,34,21.80
2016,10,05,13,35,21.60
2016,10,05,13,36,21.90
2016,10,05,13,37,22.00
2016,10,05,13,38,23.30
2016,10,05,13,39,22.80
2016,10,05,13,40,23.30
2016,10,05,13,41,24.20
2016,10,05,13,42,21.90
2016,10,05,13,43,21.00
2016,10,05,13,44,20.10
2016,10,05,13,45,22.00
2016,10,05,13,46,22.20
2016,10,05,13,47,23.80
2016,10,05,13,48,22.90
2016,10,05,13,49,22.60
2016,10,05,13,50,22.70
2016,10,05,13,51,21.90
2016,10,05,13,52,20.90
2016,10,05,13,53,20.80
2016,10,05,13,54,21.20
2016,10,05,13,55,20.80
2016,10,05,13,56,20.40
2016,10,05,13,57,21.60
2016,10,05,13,58,21.50
2016,10,05,13,59,20.40
2016,10,05,14,00,22.00
2016,10,05,14,01,21.30
2016,10,05,14,02,20.30
2016,10,05,14,03,20.10
2016,10,05,14,04,20.90
2016,10,05,14,05,20.90
2016,10,05,14,06,22.30
2016,10,05,14,07,21.10
2016,10,05,14,08,21.80
2016,10,05,14,09,22.00
2016,10,05,14,10,21.30
2016,10,05,14,11,21.40
2016,10,05,14,12,21.40
2016,10,05,14,13,20.70
2016,10,05,14,14,20.90
2016,10,05,14,15,21.00
2016,10,05,14,16,21.40
2016,10,05,14,17,20.80
2016,10,05,14,18,20.50
2016,10,05,14,19,21.30
2016,10,05,14,20,21.30
2016,10,05,14,21,21.50
2016,10,05,14,22,20.80
2016,10,05,14,23,21.70
2016,10,05,14,24,21.10
2016,10,05,14,25,21.60
2016,10,05,14,26,20.80
2016,10,05,14,27,21.60
2016,10,05,14,28,21.20
2016,10,05,14,29,21.20
2016,10,05,14,30,20.60
2016,10,05,14,31,21.70
2016,10,05,14,32,21.60
2016,10,05,14,33,20.80
2016,10,05,14,34,20.20
2016,10,05,14,35,19.90
2016,10,05,14,36,20.80
2016,10,05,14,37,20.40
2016,10,05,14,38,20.90
2016,10,05,14,39,21.40
2016,10,05,14,40,21.10
2016,10,05,14,41,21.30
2016,10,05,14,42,21.90
2016,10,05,14,43,21.50
2016,10,05,14,44,21.20
2016,10,05,14,45,21.20
2016,10,05,14,46,20.80
2016,10,05,14,47,20.80
2016,10,05,14,48,20.30
2016,10,05,14,49,20.80
2016,10,05,14,50,21.30
2016,10,05,14,51,20.50
2016,10,05,14,52,19.50
2016,10,05,14,53,19.70
2016,10,05,14,54,19.50
2016,10,05,14,55,20.00
2016,10,05,14,56,19.70
2016,10,05,14,57,19.60
2016,10,05,14,58,20.50
2016,10,05,14,59,19.10
2016,10,05,15,00,20.20
2016,10,05,15,01,19.80
2016,10,05,15,02,19.30
2016,10,05,15,03,19.60
2016,10,05,15,04,19.30
2016,10,05,15,05,19.60
2016,10,05,15,06,19.00
2016,10,05,15,07,19.20
2016,10,05,15,08,19.90
2016,10,05,15,09,19.50
2016,10,05,15,10,19.70
2016,10,05,15,11,19.10
2016,10,05,15,12,19.30
2016,10,05,15,13,19.10
2016,10,05,15,14,19.00
2016,10,05,15,15,20.20
2016,10,05,15,16,19.90
2016,10,05,15,17,19.70
2016,10,05,15,18,19.80
2016,10,05,15,19,20.10
2016,10,05,15,20,20.30
2016,10,05,15,21,20.40
2016,10,05,15,22,20.00
2016,10,05,15,23,21.00
2016,10,05,15,24,20.70
2016,10,05,15,25,21.50
2016,10,05,15,26,20.70
2016,10,05,15,27,22.50
2016,10,05,15,28,21.40
2016,10,05,15,29,20.80
2016,10,05,15,30,19.90
2016,10,05,15,31,19.00
2016,10,05,15,32,19.10
2016,10,05,15,33,18.50
2016,10,05,15,34,18.50
2016,10,05,15,35,18.00
2016,10,05,15,36,17.40
2016,10,05,15,37,16.60
2016,10,05,15,38,16.40
2016,10,05,15,39,16.90
2016,10,05,15,40,16.80
2016,10,05,15,41,16.90
2016,10,05,15,42,16.60
2016,10,05,15,43,16.40
2016,10,05,15,44,16.30
2016,10,05,15,45,16.90
2016,10,05,15,46,16.10
2016,10,05,15,47,16.00
2016,10,05,15,48,16.70
2016,10,05,15,49,16.30
2016,10,05,15,50,16.70
2016,10,05,15,51,17.10
2016,10,05,15,52,16.50
2016,10,05,15,53,16.50
2016,10,05,15,54,16.50
2016,10,05,15,55,16.90
2016,10,05,15,56,16.70
2016,10,05,15,57,16.10
2016,10,05,15,58,16.50
2016,10,05,15,59,17.60
2016,10,05,16,00,17.10
2016,10,05,16,01,16.90
2016,10,05,16,02,16.40
2016,10,05,16,03,16.00
2016,10,05,16,04,15.90
2016,10,05,16,05,15.90
2016,10,05,16,06,15.60
2016,10,05,16,07,15.70
2016,10,05,16,08,15.40
2016,10,05,16,09,15.70
2016,10,05,16,10,15.60
2016,10,05,16,11,15.60
2016,10,05,16,12,15.80
2016,10,05,16,13,15.00
2016,10,05,16,14,16.10
2016,10,05,16,15,15.50
2016,10,05,16,16,15.30
2016,10,05,16,17,14.90
2016,10,05,16,18,14.20
2016,10,05,16,19,15.10
2016,10,05,16,20,14.80
2016,10,05,16,21,15.40
2016,10,05,16,22,15.60
2016,10,05,16,23,15.60
2016,10,05,16,24,15.20
2016,10,05,16,25,14.60
2016,10,05,16,26,14.50
2016,10,05,16,27,14.60
2016,10,05,16,28,14.50
2016,10,05,16,29,15.80
2016,10,05,16,30,15.60
2016,10,05,16,31,16.30
2016,10,05,16,32,16.10
2016,10,05,16,33,15.90
2016,10,05,16,34,15.80
2016,10,05,16,35,15.40
2016,10,05,16,36,15.70
2016,10,05,16,37,15.00
2016,10,05,16,38,14.50
2016,10,05,16,39,14.00
2016,10,05,16,40,11.70
2016,10,05,16,41,7.90
2016,10,05,16,42,7.80
2016,10,05,16,43,7.40
2016,10,05,16,44,11.00
2016,10,05,16,45,7.90
2016,10,05,16,46,7.20
2016,10,05,16,47,9.30
2016,10,05,16,48,9.60
2016,10,05,16,49,8.40
2016,10,05,16,50,6.00
2016,10,05,16,51,6.00
2016,10,05,16,52,7.30
2016,10,05,16,53,7.30
2016,10,05,16,54,7.20
2016,10,05,16,55,6.80
2016,10,05,16,56,7.10
2016,10,05,16,57,8.30
2016,10,05,16,58,11.90
2016,10,05,16,59,15.70
2016,10,05,17,00,16.60
2016,10,05,17,01,17.30
2016,10,05,17,02,17.20
2016,10,05,17,03,17.20
2016,10,05,17,04,16.70
2016,10,05,17,05,16.30
2016,10,05,17,06,16.70
2016,10,05,17,07,16.50
2016,10,05,17,08,15.00
2016,10,05,17,09,15.30
2016,10,05,17,10,15.30
2016,10,05,17,11,14.60
2016,10,05,17,12,14.40
2016,10,05,17,13,15.20
2016,10,05,17,14,15.00
2016,10,05,17,15,14.30
2016,10,05,17,16,14.20
2016,10,05,17,17,14.20
2016,10,05,17,18,13.50
2016,10,05,17,19,13.10
2016,10,05,17,20,13.40
2016,10,05,17,21,14.20
2016,10,05,17,22,13.50
2016,10,05,17,23,12.80
2016,10,05,17,24,12.60
2016,10,05,17,25,12.50
2016,10,05,17,26,13.00
2016,10,05,17,27,12.30
2016,10,05,17,28,11.70
2016,10,05,17,29,11.40